Weather in Sotnikovskoye

Russia / Stavropol Krai     45°00′10″N   43°46′59″E
temp.,
°C
wind,
m/s
gust,
m/s
humid.,
%
clouds,
%
prec.,
mm/h
press.,
hPa
HPBL,
m
23 october, sat
sat2300:00+12wsw11410 0.0 102010
03:00+11nw11470 0.0 102110
06:00+10nw22580 0.0 102012
09:00+15ssw12440 0.0 1021159
12:00+20s22290 0.0 1020611
15:00+21s22250 0.0 1019894
18:00+16s22360 0.0 101912
21:00+14s22415 0.0 101910
24 october, sun
sun2400:00+12wnw2246100 0.0 101911
03:00+12nw3558100 0.0 101982
06:00+10wnw3476100 0.0 101957
09:00+13wnw3470100 0.0 1020266
12:00+17nw2360100 0.0 1018822
15:00+17nne125598 0.0 10171100
18:00+15ene3369100 0.0 101654
21:00+13ne3575100 0.0 1016166
25 october, mon
mon2500:00+12ne3578100 0.0 1016171
03:00+11n6870100 0.0 1018481
06:00+8n6773100 0.0 1021523
09:00+7nnw6885100 1.5 1024685
12:00+7nnw5775100 2.0 1025849
15:00+9nw5656100 2.0 10261399
18:00+9nw3556100 0.0 1028264
21:00+8n4756100 0.0 1030426
26 october, tue
tue2600:00+6nne356362 0.0 1030191
03:00+4nne34655 0.0 103170
06:00+3ne116611 0.0 103210
09:00+6e23505 0.0 1033371
12:00+9e33425 0.0 10321120
15:00+10ese33415 0.0 10301253
18:00+7e35525 0.0 103184
21:00+5e48545 0.0 1031176
27 october, wed
wed2700:00+4ese49555 0.0 1031187
03:00+3ese375969 0.0 1031158
06:00+2ese387122 0.0 1031150
09:00+6ese58611 0.0 1030440
12:00+10se67465 0.0 1028947
15:00+11se56475 0.0 10261112
18:00+8ese486662 0.0 1026164
21:00+9se476184 0.0 1024358